User: anonymous   Login
Location: UBC Liquid-Mirror Observatory
(49.2876°N, 122.5728°W)
Time: 04:49:17
(UTC-07:00)
Language:

Cosmos 1315 - Orbit

View from above orbital plane
View from above orbital plane
View from above satellite
View from above satellite

Ground track
Ground track

The orbit data is extracted from the following two-line orbital elements,

1 12903U 81103A   15242.33739675  .03396618 -95118-6  45237-3 0  9996
2 12903 081.0919 316.0872 0011835 258.3634 101.6020 16.35309419859059
Epoch (UTC): 30 August 2015 08:05:51
Eccentricity: 0.0011835
inclination: 81.0919°
perigee height: 170 km
apogee height: 186 km
right ascension of ascending node: 316.0872°
argument of perigee: 258.3634°
revolutions per day: 16.35309419
mean anomaly at epoch: 101.6020°
orbit number at epoch: 85905

The dashed part of the orbit path shows where the satellite is in the earth's shadow,  

DLR